EW9800 Weather Reports


Display with metric or nautical units.
time (UTC)temp
F
wind
direction
speed
MPH
gust
MPH
rain 1hr
in
rain 24hr
in
rain mn
in
humidity
%
barometer
mb
20260510174504 73 208 0.0 6.0 0.00 0.34 0.01 62 1013.2
20260510174003 72 302 1.0 6.0 0.00 0.34 0.01 60 1013.2
20260510173507 70 130 1.0 4.0 0.00 0.34 0.01 61 1013.0
20260510173003 70 236 0.0 4.0 0.00 0.34 0.01 63 1013.2
20260510172503 71 147 2.0 4.0 0.00 0.34 0.01 61 1013.1
20260510172004 71 148 0.0 6.0 0.00 0.34 0.01 64 1013.2
20260510171503 70 129 1.0 6.0 0.00 0.34 0.01 63 1013.2
20260510171004 69 240 1.0 3.0 0.00 0.34 0.01 63 1013.2
20260510170508 70 143 0.0 3.0 0.00 0.34 0.01 65 1013.3
20260510170008 70 162 1.0 3.0 0.00 0.34 0.01 63 1013.3
20260510165505 69 297 1.0 6.0 0.00 0.34 0.01 68 1013.3
20260510165005 68 150 1.0 6.0 0.00 0.34 0.01 67 1013.4
20260510164512 69 153 2.0 5.0 0.00 0.34 0.01 64 1013.5
20260510164003 68 133 1.0 4.0 0.00 0.34 0.01 64 1013.4
20260510163505 69 139 1.0 3.0 0.00 0.34 0.01 66 1013.4
20260510163018 69 285 1.0 3.0 0.00 0.34 0.01 66 1013.5
20260510162501 68 292 1.0 4.0 0.00 0.34 0.01 69 1013.5
20260510162003 68 115 1.0 5.0 0.00 0.34 0.01 66 1013.5
20260510161503 67 88 2.0 5.0 0.00 0.34 0.01 67 1013.5
20260510161005 67 262 1.0 3.0 0.00 0.34 0.01 68 1013.6
20260510160503 68 166 1.0 5.0 0.00 0.34 0.01 66 1013.6
20260510160006 67 153 1.0 5.0 0.00 0.34 0.01 70 1013.6
20260510155504 67 121 1.0 4.0 0.00 0.34 0.01 71 1013.5
20260510155004 66 249 0.0 4.0 0.00 0.34 0.01 71 1013.4
20260510154511 65 215 0.0 4.0 0.00 0.34 0.01 72 1013.5
20260510154004 66 168 2.0 4.0 0.00 0.34 0.01 70 1013.5
20260510153503 64 143 1.0 4.0 0.00 0.34 0.01 71 1013.6
20260510153017 65 149 1.0 4.0 0.00 0.34 0.01 71 1013.6
20260510152505 64 277 1.0 3.0 0.00 0.34 0.01 77 1013.5
20260510152007 64 131 1.0 3.0 0.00 0.34 0.01 72 1013.5
20260510151520 63 156 0.0 3.0 0.00 0.34 0.01 74 1013.6
20260510151003 64 160 1.0 3.0 0.00 0.34 0.01 75 1013.4
20260510150506 65 261 0.0 5.0 0.00 0.34 0.01 73 1013.5
20260510150004 63 152 1.0 5.0 0.00 0.34 0.01 74 1013.6
20260510145503 62 158 0.0 3.0 0.00 0.34 0.01 78 1013.8
20260510145003 62 267 0.0 3.0 0.00 0.34 0.01 76 1013.9
20260510144504 61 144 1.0 3.0 0.00 0.34 0.01 78 1013.9
20260510144002 61 128 1.0 3.0 0.00 0.34 0.01 77 1013.8
20260510143502 61 156 0.0 2.0 0.00 0.34 0.01 79 1013.8
20260510143010 60 147 0.0 2.0 0.00 0.34 0.01 79 1013.8
20260510142503 60 51 0.0 2.0 0.00 0.34 0.01 82 1013.8
20260510142006 59 79 0.0 2.0 0.00 0.34 0.01 82 1013.7
20260510141516 59 94 0.0 2.0 0.00 0.34 0.01 83 1013.8
20260510141012 58 121 0.0 2.0 0.00 0.34 0.01 86 1013.8
20260510140508 57 282 0.0 3.0 0.00 0.34 0.01 86 1013.8
20260510140021 57 95 1.0 3.0 0.01 0.34 0.01 87 1013.7
20260510135505 55 135 0.0 3.0 0.01 0.34 0.01 92 1013.7
20260510135004 55 180 0.0 3.0 0.01 0.34 0.01 92 1013.7
20260510134506 55 199 0.0 2.0 0.01 0.34 0.01 93 1013.7
20260510134003 55 126 0.0 2.0 0.01 0.34 0.01 93 1013.7
20260510133502 54 281 0.0 2.0 0.01 0.34 0.01 93 1013.7
20260510133014 54 68 0.0 2.0 0.01 0.34 0.01 93 1013.7
20260510132504 54 64 0.0 2.0 0.01 0.34 0.01 93 1013.8
20260510132006 54 16 0.0 2.0 0.01 0.34 0.01 93 1013.8
20260510131514 54 127 0.0 2.0 0.01 0.34 0.01 93 1013.8
20260510131007 53 94 0.0 1.0 0.01 0.34 0.01 93 1013.7
20260510130506 53 94 0.0 1.0 0.01 0.34 0.01 93 1013.4
20260510130028 53 93 0.0 1.0 0.00 0.33 0.00 93 1013.3
20260510125507 53 95 0.0 0.0 0.00 0.33 0.00 93 1013.3
20260510125010 53 232 0.0 0.0 0.00 0.33 0.00 93 1013.3
20260510124523 52 249 0.0 0.0 0.00 0.33 0.00 93 1013.2
20260510124010 52 180 0.0 0.0 0.00 0.33 0.00 93 1013.2
20260510123512 52 303 0.0 0.0 0.00 0.33 0.00 93 1013.3
20260510123009 52 357 0.0 0.0 0.00 0.33 0.00 93 1013.3
20260510122504 52 89 0.0 0.0 0.00 0.33 0.00 93 1013.3
20260510122003 52 89 0.0 0.0 0.00 0.33 0.00 93 1013.3
20260510121509 52 89 0.0 0.0 0.00 0.33 0.00 93 1013.2
20260510121003 52 89 0.0 0.0 0.00 0.33 0.00 93 1013.1
20260510120504 52 89 0.0 0.0 0.00 0.33 0.00 93 1013.1
20260510120015 52 89 0.0 0.0 0.00 0.33 0.00 93 1013.0
20260510115503 51 89 0.0 0.0 0.00 0.33 0.00 93 1012.8
20260510115007 51 89 0.0 0.0 0.00 0.33 0.00 93 1012.8
20260510114518 51 89 0.0 0.0 0.00 0.33 0.00 93 1012.7
20260510114009 51 89 0.0 0.0 0.00 0.33 0.00 93 1012.9
20260510113507 51 89 0.0 0.0 0.00 0.33 0.00 93 1012.9
20260510113037 51 89 0.0 0.0 0.00 0.33 0.00 93 1012.9
20260510112512 51 89 0.0 0.0 0.00 0.33 0.00 93 1012.8
20260510112010 51 89 0.0 0.0 0.00 0.33 0.00 93 1012.7
20260510111506 51 89 0.0 0.0 0.00 0.33 0.00 93 1012.7
20260510111004 51 89 0.0 0.0 0.00 0.33 0.00 93 1012.8
20260510110503 51 89 0.0 0.0 0.00 0.33 0.00 93 1012.6
20260510110028 51 89 0.0 0.0 0.00 0.33 0.00 93 1012.5
20260510105504 50 89 0.0 0.0 0.00 0.33 0.00 92 1012.4
20260510105009 50 89 0.0 0.0 0.00 0.33 0.00 92 1012.2
20260510104519 50 89 0.0 0.0 0.00 0.33 0.00 92 1012.2
20260510104006 50 89 0.0 0.0 0.00 0.33 0.00 92 1012.1
20260510103506 50 89 0.0 0.0 0.00 0.33 0.00 92 1012.2
20260510103004 50 89 0.0 0.0 0.00 0.33 0.00 92 1012.2
20260510102505 50 89 0.0 0.0 0.00 0.33 0.00 92 1012.3
20260510102002 50 89 0.0 0.0 0.00 0.33 0.00 92 1012.2
20260510101507 50 89 0.0 0.0 0.00 0.33 0.00 92 1012.1
20260510101004 50 108 0.0 0.0 0.00 0.33 0.00 92 1012.1
20260510100504 50 108 0.0 0.0 0.00 0.33 0.00 92 1012.2
20260510100008 50 349 0.0 0.0 0.00 0.33 0.00 92 1012.2
20260510095505 50 351 0.0 1.0 0.00 0.33 0.00 92 1012.2
20260510095004 50 316 0.0 2.0 0.00 0.33 0.00 92 1012.1
20260510094515 50 31 0.0 2.0 0.00 0.33 0.00 92 1012.2
20260510094004 50 40 0.0 2.0 0.00 0.33 0.00 92 1012.1
20260510093502 50 255 0.0 2.0 0.00 0.33 0.00 92 1012.1
20260510093002 50 185 0.0 1.0 0.00 0.33 0.00 92 1012.1
20260510092502 50 180 0.0 1.0 0.00 0.33 0.00 92 1012.0
20260510092004 50 180 0.0 1.0 0.00 0.33 0.00 92 1012.1
20260510091505 51 180 0.0 0.0 0.00 0.33 0.00 92 1012.2
20260510091003 51 180 0.0 1.0 0.00 0.33 0.00 92 1012.2
20260510090503 51 180 0.0 1.0 0.00 0.33 0.00 92 1012.3
20260510090007 51 180 0.0 1.0 0.00 0.33 0.00 92 1012.3
20260510085505 51 180 0.0 2.0 0.00 0.33 0.00 92 1012.4
20260510085003 51 180 0.0 2.0 0.00 0.33 0.00 92 1012.4
20260510084517 51 180 0.0 2.0 0.00 0.33 0.00 92 1012.3
20260510084004 51 180 0.0 2.0 0.00 0.33 0.00 92 1012.4
20260510083506 51 180 0.0 2.0 0.00 0.33 0.00 92 1012.5
20260510083017 51 303 0.0 0.0 0.00 0.33 0.00 92 1012.5
20260510082508 51 303 0.0 0.0 0.00 0.33 0.00 92 1012.6
20260510082002 51 303 0.0 1.0 0.00 0.33 0.00 92 1012.4
20260510081503 51 303 0.0 2.0 0.00 0.33 0.00 92 1012.5
20260510081002 51 239 0.0 2.0 0.00 0.33 0.00 92 1012.5
20260510080504 51 147 0.0 3.0 0.00 0.33 0.00 92 1012.5
20260510080006 51 349 0.0 3.0 0.00 0.33 0.00 92 1012.4
20260510075507 51 12 1.0 2.0 0.00 0.33 0.00 92 1012.2
20260510075004 51 32 0.0 2.0 0.00 0.33 0.00 92 1012.4
20260510074510 51 165 0.0 2.0 0.00 0.33 0.00 92 1012.2
20260510074003 51 5 0.0 2.0 0.00 0.33 0.00 92 1012.3
20260510073503 51 76 0.0 0.0 0.00 0.33 0.00 92 1011.7
20260510073013 51 76 0.0 0.0 0.00 0.33 0.00 92 1011.7
20260510072504 51 76 0.0 0.0 0.00 0.33 0.00 92 1011.7
20260510072007 51 76 0.0 0.0 0.00 0.33 0.00 92 1011.8
20260510071522 51 76 0.0 0.0 0.00 0.33 0.00 92 1011.9
20260510071011 51 76 0.0 0.0 0.00 0.33 0.00 91 1011.8
20260510070506 51 76 0.0 0.0 0.00 0.33 0.00 91 1011.9
20260510070005 51 76 0.0 0.0 0.00 0.33 0.00 92 1012.0
20260510065503 51 76 0.0 0.0 0.00 0.33 0.00 92 1012.0
20260510065003 51 76 0.0 0.0 0.00 0.33 0.00 92 1011.9
20260510064508 51 76 0.0 0.0 0.00 0.33 0.00 92 1011.8
20260510064003 51 76 0.0 0.0 0.00 0.33 0.00 92 1011.9
20260510063512 51 76 0.0 0.0 0.00 0.33 0.00 92 1011.9
20260510063013 51 76 0.0 0.0 0.00 0.33 0.00 92 1012.0
20260510062504 51 76 0.0 0.0 0.00 0.33 0.00 92 1012.1
20260510062007 51 76 0.0 0.0 0.00 0.33 0.00 92 1012.1
20260510061515 51 76 0.0 0.0 0.00 0.33 0.00 92 1012.0
20260510061007 51 76 0.0 0.0 0.00 0.33 0.00 92 1012.0
20260510060506 51 76 0.0 0.0 0.00 0.33 0.00 92 1012.0
20260510060021 51 76 0.0 0.0 0.00 0.33 0.00 92 1011.9
20260510055510 51 76 0.0 0.0 0.00 0.33 0.00 92 1011.9
20260510055006 51 76 0.0 0.0 0.00 0.33 0.00 92 1011.8
20260510054526 51 76 0.0 0.0 0.00 0.33 0.00 92 1011.7
20260510054005 51 76 0.0 0.0 0.00 0.33 0.00 92 1011.7
20260510053502 51 76 0.0 0.0 0.00 0.33 0.00 92 1011.8
20260510053008 51 76 0.0 0.0 0.00 0.33 0.00 92 1011.8
20260510052504 51 76 0.0 1.0 0.00 0.33 0.00 92 1011.8
20260510052002 51 76 0.0 1.0 0.00 0.33 0.00 92 1011.8
20260510051514 51 76 0.0 1.0 0.00 0.33 0.00 92 1011.9
20260510051004 51 53 0.0 0.0 0.00 0.33 0.00 92 1011.9
20260510050509 51 53 0.0 0.0 0.00 0.33 0.00 92 1011.9
20260510050017 51 53 0.0 0.0 0.00 0.33 0.00 92 1011.9
20260510045507 51 53 0.0 0.0 0.00 0.33 0.00 92 1012.0
20260510045010 51 53 0.0 0.0 0.00 0.33 0.00 92 1012.0
20260510044532 51 53 0.0 0.0 0.00 0.33 0.00 92 1012.0
20260510044007 51 53 0.0 0.0 0.00 0.33 0.00 92 1012.0
20260510043508 51 53 0.0 0.0 0.00 0.33 0.00 92 1012.0
20260510043024 51 53 0.0 0.0 0.00 0.33 0.00 92 1012.0
20260510042511 51 53 0.0 0.0 0.00 0.33 0.00 92 1011.9
20260510042005 51 53 0.0 0.0 0.00 0.33 0.00 92 1012.0
20260510041510 51 68 0.0 0.0 0.00 0.33 0.00 92 1012.0
20260510041005 51 67 0.0 0.0 0.00 0.33 0.00 92 1012.0
20260510040506 51 67 0.0 0.0 0.00 0.33 0.00 92 1012.0
20260510040016 51 67 0.0 0.0 0.00 0.33 0.00 91 1012.0
20260510035507 51 67 0.0 0.0 0.00 0.33 0.33 91 1012.0
20260510035004 51 67 0.0 0.0 0.00 0.33 0.33 91 1012.0
20260510034520 51 67 0.0 0.0 0.00 0.33 0.33 91 1011.8
20260510034007 51 67 0.0 0.0 0.00 0.33 0.33 91 1011.9
20260510033508 51 67 0.0 0.0 0.00 0.33 0.33 91 1011.8
20260510033026 51 67 0.0 0.0 0.00 0.33 0.33 91 1011.8
20260510032508 51 67 0.0 0.0 0.00 0.33 0.33 91 1011.8
20260510032009 51 67 0.0 0.0 0.00 0.33 0.33 91 1011.6
20260510031527 51 67 0.0 0.0 0.00 0.33 0.33 91 1011.6
20260510031012 51 67 0.0 0.0 0.00 0.33 0.33 91 1011.6
20260510030506 51 67 0.0 0.0 0.00 0.33 0.33 91 1011.5
20260510030011 51 68 0.0 1.0 0.00 0.33 0.33 91 1011.6
20260510025506 51 67 0.0 1.0 0.00 0.33 0.33 91 1011.8
20260510025006 51 67 0.0 1.0 0.00 0.33 0.33 91 1011.9
20260510024519 51 67 0.0 2.0 0.00 0.33 0.33 91 1011.8
20260510024007 50 67 0.0 2.0 0.00 0.33 0.33 90 1011.9
20260510023507 50 67 0.0 1.0 0.00 0.33 0.33 90 1011.9
20260510023022 50 67 0.0 0.0 0.00 0.33 0.33 90 1011.9
20260510022507 50 67 0.0 0.0 0.00 0.33 0.33 90 1011.8
20260510022010 51 67 0.0 1.0 0.00 0.33 0.33 90 1011.8
20260510021527 50 67 0.0 1.0 0.00 0.33 0.33 90 1011.7
20260510021008 51 68 0.0 1.0 0.00 0.33 0.33 90 1011.8
20260510020509 51 67 0.0 1.0 0.00 0.33 0.33 90 1011.7
20260510020030 51 87 0.0 1.0 0.00 0.33 0.33 90 1011.7
20260510015509 51 122 0.0 1.0 0.00 0.33 0.33 89 1011.8
20260510015010 51 122 0.0 0.0 0.00 0.33 0.33 89 1011.8
20260510014512 51 122 0.0 0.0 0.00 0.33 0.33 89 1011.8
20260510014004 51 122 0.0 0.0 0.00 0.33 0.33 89 1011.8
20260510013508 51 122 0.0 0.0 0.00 0.33 0.33 89 1011.9
20260510013004 51 122 0.0 0.0 0.00 0.33 0.33 89 1011.9
20260510012503 51 122 0.0 0.0 0.00 0.33 0.33 89 1011.7
20260510012003 51 122 0.0 0.0 0.00 0.33 0.33 89 1011.6
20260510011506 51 122 0.0 0.0 0.00 0.33 0.33 89 1011.6
20260510011002 51 122 0.0 0.0 0.00 0.33 0.33 89 1011.5
20260510010503 52 122 0.0 0.0 0.00 0.33 0.33 89 1011.3
20260510010008 52 122 0.0 0.0 0.00 0.33 0.33 89 1011.2
20260510005503 52 122 0.0 0.0 0.00 0.33 0.33 89 1011.1
20260510005005 52 122 0.0 0.0 0.00 0.33 0.33 89 1011.2
20260510004511 52 122 0.0 0.0 0.00 0.33 0.33 89 1011.1
20260510004010 52 122 0.0 0.0 0.00 0.33 0.33 89 1011.1
20260510003504 53 122 0.0 0.0 0.00 0.33 0.33 89 1011.1
20260510003023 53 122 0.0 0.0 0.00 0.33 0.33 89 1011.0
20260510002506 53 123 0.0 0.0 0.00 0.33 0.33 89 1011.1
20260510002010 53 123 0.0 0.0 0.00 0.33 0.33 89 1011.2
20260510001521 53 123 0.0 0.0 0.00 0.33 0.33 89 1011.2
20260510001003 53 123 0.0 0.0 0.00 0.33 0.33 89 1011.2
20260510000503 53 123 0.0 0.0 0.00 0.33 0.33 89 1011.2
20260510000005 53 123 0.0 0.0 0.00 0.33 0.33 89 1011.1
20260509235508 53 123 0.0 0.0 0.00 0.33 0.33 89 1011.1
20260509235004 54 123 0.0 1.0 0.00 0.33 0.33 89 1011.0
20260509234514 54 123 0.0 1.0 0.00 0.33 0.33 89 1011.0
20260509234003 54 123 0.0 1.0 0.00 0.33 0.33 89 1011.0
20260509233505 54 123 0.0 1.0 0.00 0.33 0.33 89 1010.8
20260509233022 54 123 0.0 2.0 0.00 0.33 0.33 89 1010.8
20260509232510 54 123 0.0 2.0 0.00 0.33 0.33 89 1010.8
20260509232009 54 117 0.0 3.0 0.00 0.33 0.33 89 1010.8
20260509231520 54 129 0.0 3.0 0.00 0.33 0.33 89 1010.8
20260509231007 54 296 0.0 2.0 0.00 0.33 0.33 90 1010.7
20260509230508 54 164 0.0 2.0 0.00 0.33 0.33 90 1010.7
20260509230024 55 216 0.0 3.0 0.00 0.33 0.33 90 1010.7
20260509225507 55 218 0.0 3.0 0.00 0.33 0.33 90 1010.9
20260509225003 54 164 0.0 2.0 0.00 0.33 0.33 90 1010.9
20260509224507 54 139 0.0 2.0 0.00 0.33 0.33 90 1010.9
20260509224003 54 172 0.0 2.0 0.00 0.33 0.33 90 1011.1
20260509223504 54 172 0.0 1.0 0.00 0.33 0.33 90 1011.2
20260509223014 54 203 0.0 2.0 0.01 0.33 0.33 90 1011.3
20260509222504 54 224 0.0 2.0 0.01 0.33 0.33 90 1011.2
20260509222004 54 253 0.0 2.0 0.02 0.33 0.33 90 1011.1
20260509221517 54 114 0.0 2.0 0.04 0.33 0.33 90 1011.0
20260509221013 54 132 0.0 4.0 0.06 0.33 0.33 90 1011.1
20260509220510 54 141 0.0 4.0 0.08 0.33 0.33 90 1011.2
20260509220022 54 199 0.0 2.0 0.09 0.33 0.33 90 1011.1
20260509215507 54 279 0.0 1.0 0.10 0.33 0.33 90 1011.1
20260509215008 54 164 0.0 1.0 0.11 0.33 0.33 89 1011.2
20260509214530 53 126 0.0 2.0 0.12 0.33 0.33 89 1011.1
20260509214009 53 126 0.0 2.0 0.14 0.33 0.33 89 1011.2
20260509213508 53 257 0.0 3.0 0.18 0.33 0.33 89 1011.5
20260509213010 53 271 1.0 3.0 0.18 0.32 0.32 88 1011.4
20260509212504 54 128 0.0 1.0 0.19 0.32 0.32 88 1011.4
20260509212008 54 128 0.0 1.0 0.18 0.31 0.31 88 1011.4
20260509211514 54 128 0.0 2.0 0.17 0.29 0.29 88 1011.4
20260509211003 54 128 0.0 2.0 0.16 0.27 0.27 88 1011.3
20260509210512 54 128 0.0 0.0 0.15 0.25 0.25 88 1011.3
20260509210017 54 128 0.0 1.0 0.14 0.24 0.24 88 1011.1
20260509205508 54 128 0.0 1.0 0.14 0.23 0.23 88 1011.2
20260509205007 54 128 0.0 3.0 0.15 0.22 0.22 87 1011.2
20260509204525 54 128 1.0 3.0 0.16 0.21 0.21 87 1011.1
20260509204008 55 120 1.0 3.0 0.15 0.19 0.19 87 1011.2
20260509203508 55 87 0.0 2.0 0.12 0.15 0.15 87 1011.2
20260509203029 55 225 0.0 2.0 0.11 0.14 0.14 87 1011.2
20260509202508 55 105 0.0 2.0 0.10 0.13 0.13 87 1011.4
20260509202013 55 112 0.0 2.0 0.10 0.13 0.13 87 1011.5
20260509201512 55 122 0.0 2.0 0.09 0.12 0.12 86 1011.5
20260509201011 55 126 0.0 1.0 0.08 0.11 0.11 86 1011.6
20260509200506 55 126 0.0 4.0 0.07 0.10 0.10 86 1011.6
20260509200016 55 126 0.0 4.0 0.07 0.10 0.10 86 1011.4
20260509195508 55 262 1.0 3.0 0.06 0.09 0.09 86 1011.5
20260509195007 55 143 1.0 3.0 0.04 0.07 0.07 86 1011.8
20260509194524 55 112 1.0 3.0 0.02 0.05 0.05 86 1011.7
20260509194009 55 106 0.0 2.0 0.02 0.04 0.04 85 1011.7
20260509193508 55 200 0.0 3.0 0.01 0.03 0.03 85 1011.7
20260509193029 56 144 0.0 3.0 0.02 0.03 0.03 85 1011.7
20260509192507 56 144 0.0 3.0 0.02 0.03 0.03 86 1011.8
20260509192010 55 215 1.0 3.0 0.02 0.03 0.03 85 1011.6
20260509191532 56 120 0.0 2.0 0.02 0.03 0.03 86 1011.7
20260509191011 56 49 0.0 2.0 0.03 0.03 0.03 87 1011.6
20260509190508 56 46 0.0 2.0 0.03 0.03 0.03 86 1011.6
20260509190028 56 79 1.0 3.0 0.03 0.03 0.03 86 1011.5
20260509185504 55 101 0.0 3.0 0.03 0.03 0.03 86 1011.6
20260509185014 56 150 0.0 3.0 0.03 0.03 0.03 86 1011.7
20260509184526 56 41 1.0 6.0 0.03 0.03 0.03 85 1011.3
20260509184009 56 84 0.0 6.0 0.02 0.02 0.02 83 1011.9
20260509183509 56 106 1.0 4.0 0.02 0.02 0.02 81 1012.0
20260509183024 57 281 2.0 4.0 0.01 0.01 0.01 80 1012.2
20260509182509 57 260 1.0 10.0 0.01 0.01 0.01 79 1012.3
20260509182013 58 235 1.0 10.0 0.01 0.01 0.01 78 1012.5
20260509181531 58 283 1.0 5.0 0.01 0.01 0.01 78 1012.5
20260509181011 59 324 1.0 5.0 0.00 0.00 0.00 75 1012.5
20260509180509 60 146 1.0 5.0 0.00 0.00 0.00 72 1012.4
20260509180028 61 159 0.0 8.0 0.00 0.00 0.00 70 1012.2
20260509175506 61 145 1.0 8.0 0.00 0.00 0.00 66 1012.0
20260509175010 62 107 0.0 4.0 0.00 0.00 0.00 64 1011.9